Weather History for Milwaukee, WI

Change the Weather History Date:

Sunday, March 31, 2013

  Actual Average Record
Temperature  
Mean Temperature 43 °F 40 °F  
Max Temperature 53 °F 48 °F 82 °F (1986)
Min Temperature 32 °F 32 °F 8 °F (1923)
Degree Days  
Heating Degree Days 22 25  
Month to date heating degree days 1075 930  
Since 1 July heating degree days 5800 5909  
Cooling Degree Days 0 0  
Month to date cooling degree days 0 0  
Year to date cooling degree days 0 0  
Moisture  
Dew Point 34 °F    
Average Humidity 67    
Maximum Humidity 92    
Minimum Humidity 41    
Precipitation  
Precipitation T in 0.10 in 1.62 in (1929)
Month to date precipitation 1.63 2.27  
Year to date precipitation 7.83 5.68  
Snow  
Snow T in 0.10 in 10.90 in (1926)
Month to date snowfall 7.4 7.0  
Since 1 July snowfall 44.6 44.8  
Snow Depth 0.00 in    
Sea Level Pressure  
Sea Level Pressure 29.77 in    
Wind  
Wind Speed 13 mph (WNW)    
Max Wind Speed 25 mph    
Max Gust Speed 33 mph    
Visibility 7 miles    
Events Rain , Snow    
T = Trace of Precipitation, MM = Missing Value Source: NWS Daily Summary

Daily Weather History Graph

Daily Weather History Graph

Search for Another Location

Airport:

Trip Planner

Search our weather history database for the weather conditions in past years. The results will help you decide how hot, cold, wet, or windy it might be!

Date:

Astronomy

Mar. 31, 2013 Rise Set
Actual Time 6:34 AM CDT 7:17 PM CDT
Civil Twilight 6:06 AM CDT 7:45 PM CDT
Nautical Twilight 5:32 AM CDT 8:19 PM CDT
Astronomical Twilight 4:57 AM CDT 8:54 PM CDT
Moon No Moon Rise 9:16 AM CDT (3/31)
Length of Visible Light 13h 39m
Length of Day
12h 42m
Waning Gibbous, 77% of the Moon is Illuminated
Mar 31
Waning Gibbous
Apr 2
Last Quarter
Apr 10
New
Apr 18
First Quarter
Apr 25
Full

Hourly Weather History & Observations

Time (CDT) Temp. Windchill Dew Point Humidity Pressure Visibility Wind Dir Wind Speed Gust Speed Precip Events Conditions
12:52 AM 46.9 °F - 39.9 °F 77% 29.81 in 7.0 mi SW 11.5 mph - 0.00 in   Overcast
1:25 AM 46.4 °F 41.1 °F 41.0 °F 81% 29.79 in 5.0 mi WSW 11.5 mph - N/A   Haze
1:52 AM 45.0 °F 40.1 °F 42.1 °F 90% 29.79 in 5.0 mi West 9.2 mph - N/A   Overcast
2:52 AM 45.0 °F 39.7 °F 41.0 °F 86% 29.78 in 5.0 mi West 10.4 mph - N/A   Overcast
3:52 AM 44.1 °F 37.7 °F 41.0 °F 89% 29.76 in 6.0 mi WNW 12.7 mph - N/A   Overcast
4:34 AM 42.8 °F 35.8 °F 37.4 °F 81% 29.75 in 6.0 mi WNW 13.8 mph 21.9 mph N/A   Mostly Cloudy
4:52 AM 41.0 °F 35.2 °F 37.0 °F 86% 29.75 in 6.0 mi WNW 9.2 mph - N/A   Mostly Cloudy
5:34 AM 39.2 °F 33.0 °F 35.6 °F 87% 29.75 in 7.0 mi West 9.2 mph - N/A   Scattered Clouds
5:52 AM 39.0 °F 31.0 °F 35.1 °F 86% 29.77 in 6.0 mi WNW 13.8 mph 18.4 mph N/A   Scattered Clouds
6:10 AM 39.2 °F 31.6 °F 35.6 °F 87% 29.75 in 5.0 mi WNW 12.7 mph 20.7 mph N/A   Mostly Cloudy
6:31 AM 39.2 °F 32.0 °F 35.6 °F 87% 29.75 in 4.0 mi WNW 11.5 mph - N/A   Overcast
6:52 AM 39.0 °F 32.8 °F 36.0 °F 89% 29.77 in 3.0 mi West 9.2 mph - N/A   Overcast
7:52 AM 39.0 °F 31.0 °F 36.0 °F 89% 29.76 in 3.0 mi West 13.8 mph - N/A   Overcast
8:52 AM 39.9 °F 32.9 °F 36.0 °F 86% 29.75 in 4.0 mi West 11.5 mph - N/A   Mostly Cloudy
9:15 AM 41.0 °F 33.9 °F 37.4 °F 87% 29.73 in 4.0 mi West 12.7 mph 18.4 mph N/A   Mostly Cloudy
9:52 AM 42.1 °F 34.9 °F 36.0 °F 79% 29.75 in 5.0 mi West 13.8 mph 20.7 mph N/A   Haze
10:39 AM 44.6 °F 37.4 °F 37.4 °F 76% 29.73 in 5.0 mi WSW 16.1 mph 20.7 mph N/A   Haze
10:52 AM 46.0 °F 41.4 °F 37.0 °F 71% 29.73 in 6.0 mi WSW 9.2 mph - N/A   Haze
11:52 AM 51.1 °F - 37.9 °F 61% 29.72 in 10.0 mi WSW 12.7 mph 20.7 mph N/A   Mostly Cloudy
12:52 PM 51.1 °F - 35.1 °F 54% 29.70 in 10.0 mi West 15.0 mph 25.3 mph N/A   Mostly Cloudy
1:52 PM 53.1 °F - 32.0 °F 45% 29.70 in 10.0 mi West 16.1 mph 24.2 mph N/A   Scattered Clouds
2:52 PM 51.1 °F - 28.9 °F 43% 29.70 in 10.0 mi West 18.4 mph 26.5 mph N/A   Mostly Cloudy
3:52 PM 48.9 °F - 32.0 °F 52% 29.71 in 10.0 mi WNW 19.6 mph 29.9 mph N/A   Mostly Cloudy
4:52 PM 43.0 °F 34.2 °F 30.0 °F 60% 29.76 in 10.0 mi WNW 20.7 mph 26.5 mph N/A   Overcast
5:52 PM 42.1 °F 35.7 °F 28.9 °F 60% 29.77 in 10.0 mi WNW 11.5 mph - N/A   Mostly Cloudy
6:52 PM 41.0 °F 32.8 °F 26.1 °F 55% 29.78 in 10.0 mi WNW 16.1 mph 26.5 mph N/A   Scattered Clouds
7:52 PM 37.9 °F 27.6 °F 30.0 °F 73% 29.82 in 6.0 mi NW 20.7 mph 28.8 mph 0.00 in Rain , Snow Light Rain
8:07 PM 35.6 °F 27.1 °F 32.0 °F 87% 29.81 in 5.0 mi WNW 12.7 mph - 0.00 in Rain , Snow Light Rain
8:15 PM 35.6 °F 27.5 °F 30.2 °F 81% 29.81 in 9.0 mi WNW 11.5 mph - 0.00 in Snow Light Snow
8:52 PM 37.0 °F 28.9 °F 30.0 °F 76% 29.85 in 10.0 mi NW 12.7 mph 24.2 mph 0.00 in   Mostly Cloudy
9:52 PM 36.0 °F 29.6 °F 28.9 °F 76% 29.86 in 10.0 mi WNW 8.1 mph - N/A   Scattered Clouds
10:52 PM 35.1 °F 26.9 °F 23.0 °F 61% 29.88 in 10.0 mi NW 11.5 mph - N/A   Partly Cloudy
11:52 PM 34.0 °F 26.0 °F 18.0 °F 52% 29.89 in 10.0 mi NNW 10.4 mph - N/A   Partly Cloudy